Content
SEND FEEDBACK

Daily
Averages
Monthly
Summary
United States of America

PRINCESS ANNE, MARYLAND


Home > North America > United States > Maryland
Elevation: 17 feet     Latitude: 38 13N     Longitude: 075 41W

WEATHER
 
SELECT A DAY
Number of Records: 204,468;   Date Range: 1/1/95 - 7/29/14
 
SHARE

PRINT THIS DATA

[ ← Previous Day ]
WEATHER ALMANAC - FEBRUARY 13, 2013
[ Next Day → ]
[ °C ]   °F
Weather ElementAverageHighLow
Temperature43.2 °F48 °F (11:54 am)39 °F (5:54 am)
Dewpoint36.5 °F42.8 °F (4:23 pm)28.9 °F (5:54 am)
Humidity77.9 %90 % (4:54 pm)59 % (10:54 am)
Barometer29.73 in29.95 in (1:54 am)29.61 in (5:11 pm)
Wind Speed8.4 mph15 mph (10:23 pm)
Wind Gust20.7 mph (10:23 pm)
Weather ElementAverage
Visibility6.3 mi
Wind DirectionSSE (161.5 °)

Weather ElementTotal
Precipitation0.74 in
Heating Degree Days21.5 (Base 65)
Averaged from 33 records on February 13, 2013
WEATHER CONDITIONS BREAKOUT
WIND DIRECTION BREAKOUT
WEATHER BY HOUR - FEBRUARY 13, 2013
[ °C ]   °F
Local TimeTemperatureDewpointHumidityBarometerVisibilityWind DirectionWind SpeedGust SpeedPrecipitationEventsConditions
1:54 AM41.0 °F33.1 °F73 %29.95 in10.0 miNorth (10°)4.6 mphClear
2:54 AM41.0 °F32.0 °F70 %29.91 in10.0 miNE (50°)8.1 mphClear
3:54 AM41.0 °F30.9 °F67 %29.90 in10.0 miENE (70°)6.9 mphClear
4:54 AM41.0 °F30.9 °F67 %29.91 in10.0 miEast (80°)8.1 mphClear
5:54 AM39.0 °F28.9 °F67 %29.88 in10.0 miENE (60°)9.2 mphPartly Cloudy
6:54 AM39.9 °F30.0 °F68 %29.88 in10.0 miENE (60°)9.2 mphOvercast
7:54 AM41.0 °F30.0 °F65 %29.90 in10.0 miEast (90°)6.9 mphPartly Cloudy
8:54 AM42.1 °F30.9 °F65 %29.89 in10.0 miENE (70°)9.2 mphClear
9:54 AM45.0 °F33.1 °F63 %29.87 in10.0 miEast (90°)12.7 mph16.1 mphClear
10:54 AM46.9 °F33.1 °F59 %29.86 in10.0 miENE (70°)10.4 mphScattered Clouds
11:54 AM48.0 °F35.1 °F61 %29.81 in10.0 miEast (90°)9.2 mphOvercast
12:54 PM46.9 °F37.0 °F68 %29.77 in10.0 miEast (90°)9.2 mph0.00 inRainLight Rain
1:54 PM46.0 °F39.0 °F76 %29.72 in5.0 miENE (60°)9.2 mph0.00 inRainLight Rain
2:54 PM46.9 °F39.0 °F74 %29.68 in10.0 miENE (60°)10.4 mph0.00 inRainLight Rain
3:54 PM46.9 °F39.9 °F77 %29.65 in5.0 miENE (60°)5.8 mph0.01 inHaze
4:00 PM46.4 °F41.0 °F81 %29.64 in2.5 miNE (50°)6.9 mph0.00 inRainLight Rain
4:23 PM46.4 °F42.8 °F87 %29.63 in1.2 miNE (40°)6.9 mph0.00 inRainLight Rain
4:36 PM46.4 °F42.8 °F87 %29.63 in1.2 miNE (50°)5.8 mph0.01 inOvercast
4:54 PM45.0 °F42.1 °F90 %29.62 in1.0 miNE (40°)6.9 mph0.07 inRainRain
5:11 PM44.6 °F41.0 °F87 %29.61 in2.5 miNNE (30°)8.1 mph0.01 inRainLight Rain
5:28 PM44.6 °F41.0 °F87 %29.62 in1.5 miNorth (350°)6.9 mph0.03 inRainRain
5:54 PM44.1 °F39.9 °F85 %29.61 in2.0 miNorth (10°)5.8 mph0.07 inRainLight Rain
6:16 PM42.8 °F39.2 °F87 %29.62 in3.0 miNNW (340°)5.8 mph0.03 inRainRain
6:30 PM42.8 °F39.2 °F87 %29.62 in3.0 miNNW (340°)5.8 mph0.06 inRainLight Rain
6:40 PM42.8 °F39.2 °F87 %29.62 in2.5 miNNW (330°)8.1 mph0.07 inRainLight Rain
6:54 PM43.0 °F39.0 °F86 %29.64 in3.0 miNNW (340°)8.1 mph0.09 inRainLight Rain
7:21 PM42.8 °F39.2 °F87 %29.62 in3.0 miNNW (340°)9.2 mph0.06 inRainRain
7:54 PM42.1 °F37.9 °F85 %29.63 in6.0 miNorth (360°)8.1 mph0.11 inRainLight Rain
8:54 PM41.0 °F37.0 °F86 %29.63 in4.0 miNNW (340°)9.2 mph0.04 inRainLight Rain
9:54 PM39.9 °F36.0 °F86 %29.66 in6.0 miNNW (340°)9.2 mph0.05 inRainLight Rain
10:23 PM39.2 °F35.6 °F87 %29.67 in7.0 miNorth (360°)15.0 mph20.7 mph0.01 inRainLight Rain
10:54 PM39.0 °F35.1 °F86 %29.70 in9.0 miNNW (330°)10.4 mph0.01 inRainLight Rain
11:54 PM39.0 °F34.0 °F82 %29.72 in8.0 miNNW (330°)10.4 mph0.01 inOvercast
Hourly data recorded from KSBY, located miles away from Princess Anne, Maryland







STORIES FROM OUR PARTNERS